#timestamp,LO_Frequency,Hit,StdDev 
1590868815.5,286046996.6,Y
1590868835.3,286046997.9,P
1590868855.2,286046996.9,N
1590868875.9,286047000.7,N
1590868895.7,286047002.3,N
1590868915.6,286047004.4,N
1590868935.4,286047004.4,N
1590868955.2,286047000.1,N
1590868975.1,286046998.8,N
1590868976.0,286046998.8,N
1590868995.8,286046999.0,N
1590869015.7,286046999.3,N
1590869035.5,286046998.3,N
1590869055.3,286047000.6,N
1590869075.2,286047004.2,N
1590869095.0,286047003.9,N
1590869095.9,286047003.9,N
1590869115.8,286047003.6,N
1590869135.6,286047005.0,N
1590869155.4,286047006.2,N
1590869175.3,286047007.7,N
1590869195.1,286047007.4,N
1590869215.8,286047004.8,N
1590869235.7,286047001.4,N
1590869255.5,286047000.1,N
1590869275.4,286046998.1,N
1590869295.2,286047000.4,N
1590869315.0,286046999.7,N
1590869315.9,286046999.7,N
1590869335.8,286047001.7,N
1590869355.6,286047001.5,N
1590869375.5,286047004.4,N
1590869395.3,286047004.3,N
1590869415.1,286047003.1,N
1590869435.9,286047006.0,N
1590869455.7,286047004.1,N
1590869475.5,286047004.4,N
1590869495.4,286047001.3,N
1590869515.2,286047001.5,N
1590869535.0,286047001.8,N
1590869536.0,286047001.8,N
1590869555.8,286047005.9,N
1590869575.6,286047002.9,N
1590869595.5,286047004.3,N
1590869615.3,286047001.4,N
1590869635.1,286046999.8,N
1590869655.9,286047000.0,N
1590869675.7,286047000.2,N
1590869695.6,286047000.5,N
1590869715.4,286046998.7,N
1590869735.2,286046999.5,N
1590869755.1,286046997.3,N
1590869756.0,286046997.3,N
1590869775.8,286046997.3,N
1590869795.7,286046997.3,N
1590869815.5,286046995.3,N
1590869835.3,286046995.1,N
1590869855.2,286046995.9,N
1590869875.9,286046997.7,N
1590869895.7,286046997.1,N
1590869915.6,286046995.9,N
1590869935.4,286046996.1,N
1590869955.2,286046995.7,N
1590869975.1,286046996.2,N
1590869976.0,286046996.2,N
1590869995.8,286046996.4,N
1590870015.7,286046996.4,N
1590870035.5,286046995.8,N
1590870055.3,286046995.8,N
1590870075.2,286046993.3,N
1590870095.0,286046994.4,N
1590870095.9,286046994.4,N
1590870115.7,286046994.4,N
1590870135.6,286046994.0,N
1590870155.4,286046993.8,Y
1590870175.3,286046999.4,P
1590870195.1,286047000.9,N
1590870196.0,286047000.9,N
1590870215.8,286047000.7,N
1590870235.7,286046998.1,N
1590870255.5,286046998.9,N
1590870275.3,286046996.7,N
1590870295.2,286046996.6,N
1590870315.0,286046997.1,N
1590870315.9,286046997.1,N
1590870335.8,286046997.1,N
1590870355.6,286046996.8,N
1590870375.4,286046999.2,N
1590870395.3,286046999.3,N
1590870415.1,286047000.8,N
1590870435.8,286047000.9,N
1590870455.7,286046998.7,N
1590870475.5,286046999.6,N
1590870495.4,286046996.5,N
1590870515.2,286046996.5,N
1590870535.0,286046997.1,N
1590870535.9,286046997.1,N
1590870555.8,286046998.2,N
1590870575.6,286046999.1,N
1590870595.4,286046999.4,N
1590870615.3,286046999.5,N
1590870635.1,286046999.0,N
1590870655.9,286046998.8,N
1590870675.7,286046998.2,N
1590870695.5,286047000.8,N
1590870715.4,286047001.2,N
1590870735.2,286046999.1,N
1590870755.0,286046999.4,N
1590870755.9,286046999.4,N
1590870775.8,286046999.2,N
1590870795.6,286046999.2,N
1590870815.5,286046999.2,N
1590870835.3,286046998.2,N
1590870855.1,286047001.1,N
1590870875.9,286047001.1,N
1590870895.7,286046998.9,N
1590870915.5,286046996.5,N
1590870935.4,286046999.2,N
1590870955.2,286046999.4,N
1590870975.0,286046999.3,N
1590870976.0,286046999.3,N
1590870995.8,286046998.4,N
1590871015.6,286046998.1,N
1590871035.5,286046999.1,N
1590871055.3,286046999.5,N
1590871075.1,286046999.6,N
1590871095.9,286046996.5,Y
1590871115.7,286046998.6,P
1590871135.6,286046999.0,P
1590871155.4,286046998.8,P
1590871175.2,286046999.4,Y
1590871195.1,286047000.8,P
1590871196.0,286047000.8,N
1590871215.8,286047001.2,N
1590871235.6,286046998.5,N
1590871255.5,286047001.1,N
1590871275.3,286047001.2,N
1590871295.2,286047000.3,N
1590871315.9,286047000.2,N
1590871335.7,286046998.7,N
1590871355.6,286046999.3,N
1590871375.4,286046999.4,N
1590871395.2,286046999.4,N
1590871415.1,286047000.4,N
1590871416.0,286047000.4,N
1590871435.8,286047000.0,N
1590871455.7,286047000.1,N
1590871475.5,286047000.1,N
1590871495.3,286047002.6,Y
1590871515.2,286047002.4,P
1590871535.9,286047002.3,N
1590871555.7,286047003.6,P
1590871575.6,286047005.5,Y
1590871595.4,286047004.3,P
1590871615.3,286047001.3,N
1590871635.1,286047003.1,N
1590871636.0,286047003.1,N
1590871655.8,286047004.1,Y
1590871675.7,286046999.7,P
1590871695.5,286047003.7,N
1590871715.3,286047003.7,N
1590871735.2,286047005.5,Y
1590871755.0,286047003.9,P
1590871755.9,286047003.9,P
1590871775.8,286047001.6,N
1590871795.6,286047000.0,N
1590871815.4,286046998.8,N
1590871835.3,286046997.8,N
1590871855.1,286046999.6,N
1590871875.8,286046998.4,N
1590871895.7,286047001.2,N
1590871915.5,286046999.7,N
1590871935.4,286047000.2,N
1590871955.2,286047002.0,N
1590871975.0,286047002.4,N
1590871975.9,286047002.4,N
1590871995.8,286047000.1,N
1590872015.6,286046998.1,N
1590872035.4,286047002.7,N
1590872055.3,286047002.3,N
1590872075.1,286047000.1,N
1590872095.9,286047000.8,N
1590872115.7,286046996.5,N
1590872135.5,286046999.4,N
1590872155.4,286047000.2,N
1590872175.2,286047001.4,N
1590872195.0,286047003.6,N
1590872195.9,286047003.6,N
1590872215.8,286047004.2,N
1590872235.6,286047003.7,N
1590872255.5,286047001.5,N
1590872275.3,286047001.6,N
1590872295.1,286046999.8,N
1590872315.9,286046998.1,N
1590872335.7,286047000.8,N
1590872355.5,286047000.6,N
1590872375.4,286047000.8,N
1590872395.2,286046998.8,N
